TimeEDT,TemperatureF,Dew PointF,Humidity,Sea Level PressureIn,VisibilityMPH,Wind Direction,Wind SpeedMPH,Gust SpeedMPH,PrecipitationIn,Events,Conditions,WindDirDegrees,DateUTC
12:53 AM,70.0,63.0,78,29.88,10.0,North,-9999.0,-,N/A,,Clear,0,2013-06-18 04:53:00
1:53 AM,68.0,63.0,84,29.87,9.0,North,-9999.0,-,N/A,,Clear,0,2013-06-18 05:53:00
2:53 AM,68.0,64.0,87,29.86,9.0,North,-9999.0,-,N/A,,Clear,0,2013-06-18 06:53:00
3:53 AM,66.9,64.0,90,29.84,8.0,North,-9999.0,-,N/A,,Clear,0,2013-06-18 07:53:00
4:53 AM,66.0,63.0,90,29.86,6.0,North,-9999.0,-,N/A,,Clear,0,2013-06-18 08:53:00
5:53 AM,64.9,62.1,90,29.87,4.0,North,-9999.0,-,N/A,,Clear,0,2013-06-18 09:53:00
6:53 AM,68.0,64.0,87,29.87,6.0,Calm,Calm,-,N/A,,Clear,0,2013-06-18 10:53:00
7:53 AM,71.1,64.9,81,29.87,8.0,Variable,3.5,-,N/A,,Clear,0,2013-06-18 11:53:00
8:53 AM,72.0,66.0,81,29.88,9.0,SSE,5.8,-,N/A,,Clear,160,2013-06-18 12:53:00
9:53 AM,75.0,66.0,73,29.86,9.0,North,-9999.0,-,N/A,,Clear,0,2013-06-18 13:53:00
10:00 AM,75.2,64.4,69,29.88,8.0,Calm,Calm,-,N/A,,Clear,0,2013-06-18 14:00:00
10:53 AM,75.9,66.0,71,29.85,9.0,Calm,Calm,-,N/A,,Partly Cloudy,0,2013-06-18 14:53:00
11:41 AM,73.4,66.2,78,29.89,0.8,SSE,4.6,-,0.14,Rain,Heavy Rain,160,2013-06-18 15:41:00
11:53 AM,72.0,66.9,84,29.85,2.0,SSE,4.6,-,0.21,Rain,Rain,160,2013-06-18 15:53:00
11:55 AM,71.6,68.0,88,29.87,2.5,ESE,11.5,17.3,0.01,Rain,Rain,120,2013-06-18 15:55:00
12:02 PM,71.6,66.2,83,29.87,3.0,ESE,11.5,17.3,0.03,Rain,Rain,120,2013-06-18 16:02:00
12:53 PM,72.0,62.1,71,29.82,10.0,ESE,11.5,17.3,0.04,,Partly Cloudy,120,2013-06-18 16:53:00
12:55 PM,71.6,62.6,73,29.84,10.0,ESE,9.2,-,N/A,,Partly Cloudy,120,2013-06-18 16:55:00
1:53 PM,70.0,64.0,81,29.83,9.0,West,4.6,-,0.00,Rain,Light Rain,280,2013-06-18 17:53:00
2:53 PM,71.1,66.0,84,29.83,8.0,North,-9999.0,-,0.04,Rain,Light Rain,0,2013-06-18 18:53:00
3:10 PM,69.8,66.2,88,29.85,7.0,South,4.6,-,0.01,Rain,Light Rain,180,2013-06-18 19:10:00
3:27 PM,69.8,66.2,88,29.84,5.0,South,4.6,-,0.04,Rain,Light Rain,180,2013-06-18 19:27:00
3:53 PM,66.9,64.9,93,29.80,4.0,South,4.6,-,0.08,Rain,Rain,180,2013-06-18 19:53:00
4:53 PM,66.9,64.9,93,29.82,6.0,South,5.8,-,0.02,Rain,Light Rain,170,2013-06-18 20:53:00
5:39 PM,66.2,64.4,94,29.83,6.0,SW,9.2,-,0.03,Rain,Light Rain,220,2013-06-18 21:39:00
5:53 PM,66.9,64.9,93,29.81,6.0,SW,9.2,-,0.03,Rain,Light Rain,220,2013-06-18 21:53:00
6:19 PM,66.2,64.4,94,29.84,7.0,SSE,6.9,-,0.01,Rain,Light Rain,160,2013-06-18 22:19:00
6:53 PM,66.9,64.9,93,29.83,5.0,SSE,6.9,-,0.03,Rain,Light Rain,160,2013-06-18 22:53:00
7:30 PM,66.2,64.4,94,29.84,8.0,NE,11.5,-,0.03,Rain,Light Rain,40,2013-06-18 23:30:00
7:53 PM,66.0,64.0,93,29.81,9.0,NE,11.5,-,0.03,Rain,Light Rain,40,2013-06-18 23:53:00
8:53 PM,66.0,63.0,90,29.81,10.0,East,11.5,-,0.00,Rain,Light Rain,90,2013-06-19 00:53:00
9:53 PM,64.9,62.1,90,29.83,10.0,North,9.2,-,0.01,,Mostly Cloudy,360,2013-06-19 01:53:00
10:53 PM,64.9,62.1,90,29.85,10.0,North,-9999.0,-,N/A,,Clear,0,2013-06-19 02:53:00
11:53 PM,64.0,61.0,90,29.86,10.0,North,-9999.0,-,N/A,,Clear,0,2013-06-19 03:53:00